Regional Weather Roundup
Issued by NWS

Home | Current Version | Previous Version | Text Only | Print | Product List | Glossary On
Versions: 1 2 3 4 5 6 7 8 9 10 11 12 13 14 15 16 17 18 19 20 21 22 23 24 25 26 27 28 29 30 31 32 33 34 35 36 37 38 39 40 41 42 43 44 45 46 47 48 49 50
000
ASUS45 KREV 191610
RWRNV
NEVADA REGIONAL WEATHER ROUNDUP
NATIONAL WEATHER SERVICE RENO NV
800 AM PST FRI DEC 19 2014

NOTE: "FAIR" INDICATES FEW OR NO CLOUDS BELOW 12,000 FEET WITH NO
SIGNIFICANT WEATHER AND/OR OBSTRUCTIONS TO VISIBILITY.

NVZ001-003-004-191700-
WESTERN NEVADA

CITY           SKY/WX    TMP DP  RH WIND       PRES   REMARKS
RENO           MOCLDY    38  24  57 NE3       30.06S
CARSON CITY    FAIR      36  21  55 E9        30.06F
MINDEN         FAIR      32  14  47 CALM      30.08
SLIDE MTN        N/A     23  21  93 W58         N/A
PYRAMID LAKE     N/A     43 N/A N/A SE10        N/A
FALLON         MOCLDY    37  28  70 S12       30.07F
LOVELOCK       CLOUDY    27  22  81 SE7       30.09S
HAWTHORNE      CLEAR     34  30  86 CALM      30.13F
$$

NVZ002-CAZ072-073-191700-
NORTHERN AND CENTRAL SIERRA

CITY           SKY/WX    TMP DP  RH WIND       PRES   REMARKS
S. LAKE TAHOE  CLOUDY    41  18  39 S20G28    30.08F
SQUAW VLY 8000   N/A     28  28 100 VRB22       N/A
BLUE CANYON    CLOUDY    38  29  70 SE12G25   30.12F
MAMMOTH LAKES  FAIR      19  19 100 NW5       30.18F
BRIDGEPORT     FAIR      38   7  27 S10G20    30.06F
$$

NVZ030-031-036-191700-
NORTHERN NEVADA

CITY           SKY/WX    TMP DP  RH WIND       PRES   REMARKS
ELKO           MOCLDY    30  25  81 NW6       30.12F
WINNEMUCCA     CLOUDY    39  28  64 S13       30.08S
WENDOVER       CLOUDY    27  21  80 S5        30.19R
$$

NVZ035-037-191700-
CENTRAL NEVADA

CITY           SKY/WX    TMP DP  RH WIND       PRES   REMARKS
ELY            MOCLDY    22  18  85 SE7       30.20R
EUREKA           N/A     24  20  84 S7        30.14F
$$

NVZ013-014-191700-
SOUTH CENTRAL NEVADA

CITY           SKY/WX    TMP DP  RH WIND       PRES   REMARKS
TONOPAH        PTCLDY    28  23  81 NE6       30.21R
$$

NVZ017-020-022-191700-
SOUTHERN NEVADA

CITY           SKY/WX    TMP DP  RH WIND       PRES   REMARKS
LAS VEGAS      PTSUNNY   44  36  73 SW3       30.22R
N. LAS VEGAS   PTSUNNY   42  34  73 CALM      30.24R
NELLIS AFB     PTSUNNY   40  37  88 W5        30.27R
HENDERSON      PTSUNNY   39  35  86 S5        30.27R
MERCURY        MOSUNNY   36  32  85 CALM      30.22R
$$


USA.gov is the U.S. government's official web portal to all federal, state and local government web resources and services.